Paducah, KY

6:14 AM CST on January 24, 2018 (GMT -0600)
Barkley Regional

Weather History for KPAH - October, 2011

Change the Weather History Date:

Thursday, October 27, 2011

  Actual Average Record
Temperature  
Mean Temperature 50 °F 56 °F  
Max Temperature 52 °F 67 °F 88 °F (1940)
Min Temperature 48 °F 44 °F 28 °F (1957)
Degree Days  
Heating Degree Days 15 10  
Month to date heating degree days 165 185  
Since 1 July heating degree days 201 224  
Cooling Degree Days 0 1  
Month to date cooling degree days 15 38  
Year to date cooling degree days 1698 1538  
Moisture  
Dew Point 45 °F    
Average Humidity 81    
Maximum Humidity 93    
Minimum Humidity 68    
Precipitation  
Precipitation 0.18 in 0.13 in 2.85 in (1947)
Month to date precipitation 1.46 3.48  
Year to date precipitation 57.56 39.71  
Snow  
Snow 0.00 in 0.00 in 0.00 in (2002)
Month to date snowfall 0.0 0.1  
Since 1 July snowfall 0.0 0.1  
Since 1 September snowfall 0.0 0.1  
Snow Depth 0.00 in    
Sea Level Pressure  
Sea Level Pressure 29.98 in    
Wind  
Wind Speed 9 mph (North)    
Max Wind Speed 17 mph    
Max Gust Speed 23 mph    
Visibility 8 miles    
Events Rain    
T = Trace of Precipitation, MM = Missing Value Source: NWS Daily Summary

Daily Weather History Graph

Daily Weather History Graph

Search for Another Location

Airport or City:

Trip Planner

Search our weather history database for the weather conditions in past years. The results will help you decide how hot, cold, wet, or windy it might be!

Date:

Astronomy

Oct. 27, 2011 Rise Set
Actual Time 7:13 AM CDT 6:03 PM CDT
Civil Twilight 6:47 AM CDT 6:30 PM CDT
Nautical Twilight 6:16 AM CDT 7:00 PM CDT
Astronomical Twilight 5:46 AM CDT 7:30 PM CDT
Moon 8:14 AM CDT (10/27) 6:35 PM CDT (10/27)
Length of Visible Light 11h 42m
Length of Day
10h 49m
New Moon, 1% of the Moon is Illuminated
Oct 27
New Moon
Nov 2
First Quarter
Nov 10
Full
Nov 18
Last Quarter
Nov 25
New

Hourly Weather History & Observations

Time (CDT) Temp. Dew Point Humidity Pressure Visibility Wind Dir Wind Speed Gust Speed Precip Events Conditions
12:12 AM 53.6 °F 51.8 °F 94% 29.88 in 4.0 mi North 6.9 mph - 0.02 in Rain Heavy Rain
12:50 AM 51.8 °F 48.2 °F 88% 29.88 in 7.0 mi North 9.2 mph - 0.14 in Rain Light Rain
12:53 AM 52.0 °F 48.9 °F 89% 29.88 in 8.0 mi North 9.2 mph - 0.14 in Rain Light Rain
1:28 AM 51.8 °F 48.2 °F 88% 29.90 in 5.0 mi Variable 5.8 mph - 0.05 in Rain Light Rain
1:35 AM 51.8 °F 48.2 °F 88% 29.90 in 6.0 mi North 5.8 mph - 0.06 in Rain Rain
1:53 AM 51.1 °F 48.0 °F 89% 29.89 in 9.0 mi North 9.2 mph - 0.06 in Rain Light Rain
2:07 AM 51.8 °F 48.2 °F 88% 29.88 in 7.0 mi North 6.9 mph - 0.01 in Rain Light Rain
2:50 AM 51.8 °F 48.2 °F 88% 29.88 in 10.0 mi North 9.2 mph - 0.02 in Rain Light Rain
2:53 AM 51.8 °F 48.2 °F 88% 29.88 in 10.0 mi North 9.2 mph - N/A Rain Light Rain
3:32 AM 51.8 °F 48.2 °F 88% 29.90 in 6.0 mi NNW 4.6 mph - 0.02 in Rain Light Rain
3:40 AM 51.8 °F 48.2 °F 88% 29.90 in 5.0 mi NNW 6.9 mph - 0.03 in Rain Rain
3:49 AM 50.0 °F 48.2 °F 94% 29.89 in 3.0 mi North 8.1 mph - 0.08 in Rain Heavy Rain
3:53 AM 50.0 °F 48.0 °F 93% 29.89 in 3.0 mi North 9.2 mph - 0.10 in Rain Rain
4:53 AM 50.0 °F 46.9 °F 89% 29.90 in 10.0 mi NNW 10.4 mph - 0.01 in   Overcast
5:00 AM 50.0 °F 46.4 °F 87% 29.91 in 8.0 mi NNW 13.8 mph - N/A   Overcast
5:53 AM 50.0 °F 46.0 °F 86% 29.93 in 7.0 mi North 11.5 mph - N/A   Overcast
6:06 AM 50.0 °F 46.4 °F 87% 29.93 in 8.0 mi North 13.8 mph 18.4 mph N/A   Overcast
6:29 AM 48.2 °F 46.4 °F 93% 29.94 in 7.0 mi North 9.2 mph - N/A   Overcast
6:53 AM 48.9 °F 46.0 °F 90% 29.94 in 4.0 mi NNW 10.4 mph - N/A   Overcast
7:53 AM 48.9 °F 45.0 °F 86% 29.97 in 6.0 mi North 15.0 mph 21.9 mph N/A   Overcast
8:02 AM 48.2 °F 44.6 °F 87% 29.98 in 5.0 mi North 11.5 mph - N/A   Overcast
8:53 AM 48.9 °F 44.1 °F 83% 29.99 in 6.0 mi North 13.8 mph 23.0 mph N/A   Haze
9:05 AM 48.2 °F 44.6 °F 87% 29.98 in 5.0 mi North 11.5 mph - N/A   Overcast
9:29 AM 48.2 °F 44.6 °F 87% 29.99 in 6.0 mi North 11.5 mph 17.3 mph N/A   Overcast
9:53 AM 50.0 °F 45.0 °F 83% 29.99 in 6.0 mi North 11.5 mph - N/A   Haze
10:23 AM 50.0 °F 44.6 °F 82% 30.00 in 8.0 mi North 10.4 mph 16.1 mph N/A   Overcast
10:53 AM 51.1 °F 44.1 °F 77% 30.03 in 10.0 mi North 8.1 mph - N/A   Overcast
11:53 AM 51.1 °F 43.0 °F 74% 30.05 in 10.0 mi NNW 11.5 mph - N/A   Overcast
12:43 PM 51.8 °F 42.8 °F 71% 30.02 in 10.0 mi North 13.8 mph 20.7 mph N/A   Overcast
12:53 PM 51.1 °F 41.0 °F 68% 30.01 in 10.0 mi North 13.8 mph - N/A   Overcast
1:53 PM 51.8 °F 41.0 °F 67% 30.02 in 10.0 mi North 12.7 mph - N/A Rain Light Rain
2:53 PM 50.0 °F 43.0 °F 77% 30.03 in 10.0 mi North 6.9 mph - 0.00 in Rain Light Rain
3:53 PM 50.0 °F 42.1 °F 74% 30.02 in 10.0 mi North 9.2 mph - 0.00 in   Overcast
4:53 PM 50.0 °F 42.1 °F 74% 30.05 in 10.0 mi NNE 5.8 mph - N/A   Overcast
5:53 PM 50.0 °F 42.8 °F 76% 30.06 in 10.0 mi NE 4.6 mph - N/A   Scattered Clouds
6:53 PM 50.0 °F 41.0 °F 71% 30.10 in 10.0 mi Calm Calm - N/A   Scattered Clouds
7:53 PM 48.9 °F 42.1 °F 77% 30.12 in 10.0 mi North 3.5 mph - N/A   Scattered Clouds
8:53 PM 48.9 °F 41.0 °F 74% 30.12 in 10.0 mi NE 5.8 mph - N/A   Clear
9:53 PM 48.0 °F 41.0 °F 77% 30.13 in 10.0 mi NNE 4.6 mph - N/A   Scattered Clouds
10:53 PM 48.0 °F 39.9 °F 74% 30.13 in 10.0 mi NE 5.8 mph - N/A   Overcast
11:53 PM 48.0 °F 39.9 °F 74% 30.11 in 10.0 mi NE 6.9 mph - N/A   Overcast